Volver al catálogo

DELTA 1 DEB

ActivoSSO
NORAD 37641·DEBRIS·🇺🇸 United States

Lanzado Mar 5, 1978 desde Vandenberg Space Force Base

Loading…

Próximos Pases (próximas 24 horas)

TLE

ActualizadoSource: Space-Track

Época: Sep 13, 2026, 07:33 UTC

1 37641U 78026JC  26256.31522352  .00000683  00000-0  25845-3 0  9992
2 37641  98.7623 289.8922 0071111 165.4537 194.8716 14.33040358368037

Sigue DELTA 1 DEB en tiempo real con AllMySat

Download on the App Store